| time (UTC) | temp F | wind direction | speed MPH | gust MPH | rain 1hr in | rain 24hr in | rain mn in | humidity % | barometer mb |
| 20260906052552 | 60 | 232 | 0.0 | 0.0 | 0.00 | 0.02 | 0.02 | 80 | 1024.1 |
| 20260906052049 | 60 | 293 | 0.0 | 1.0 | 0.00 | 0.02 | 0.02 | 80 | 1024.1 |
| 20260906051545 | 61 | 107 | 0.0 | 1.0 | 0.00 | 0.02 | 0.02 | 78 | 1024.2 |
| 20260906051040 | 62 | 271 | 0.0 | 0.0 | 0.00 | 0.02 | 0.02 | 76 | 1024.1 |
| 20260906050535 | 62 | 344 | 2.0 | 2.0 | 0.00 | 0.02 | 0.02 | 76 | 1024.2 |
| 20260906050030 | 61 | 298 | 1.0 | 2.0 | 0.00 | 0.02 | 0.02 | 77 | 1024.0 |
| 20260906045528 | 61 | 350 | 1.0 | 2.0 | 0.00 | 0.02 | 0.02 | 77 | 1023.9 |
| 20260906045024 | 61 | 349 | 3.0 | 3.0 | 0.00 | 0.02 | 0.02 | 77 | 1023.8 |
| 20260906044520 | 61 | 18 | 3.0 | 3.0 | 0.00 | 0.02 | 0.02 | 78 | 1024.0 |
| 20260906044015 | 61 | 338 | 3.0 | 5.0 | 0.00 | 0.02 | 0.02 | 78 | 1023.9 |
| 20260906043511 | 61 | 314 | 1.0 | 1.0 | 0.00 | 0.02 | 0.02 | 78 | 1024.1 |
| 20260906043007 | 61 | 21 | 2.0 | 2.0 | 0.00 | 0.02 | 0.02 | 78 | 1023.9 |
| 20260906042505 | 61 | 22 | 5.0 | 6.0 | 0.00 | 0.02 | 0.02 | 77 | 1024.3 |
| 20260906042005 | 61 | 321 | 2.0 | 2.0 | 0.00 | 0.02 | 0.02 | 77 | 1024.1 |
| 20260906041502 | 62 | 327 | 2.0 | 2.0 | 0.00 | 0.02 | 0.02 | 77 | 1024.2 |
| 20260906041001 | 62 | 303 | 1.0 | 1.0 | 0.00 | 0.02 | 0.02 | 76 | 1024.3 |
| 20260906040456 | 62 | 341 | 2.0 | 2.0 | 0.00 | 0.02 | 0.02 | 75 | 1024.3 |
| 20260906035951 | 62 | 3 | 3.0 | 5.0 | 0.00 | 0.02 | 0.02 | 75 | 1024.2 |
| 20260906035447 | 62 | 359 | 3.0 | 3.0 | 0.00 | 0.02 | 0.02 | 74 | 1023.9 |
| 20260906034942 | 63 | 330 | 3.0 | 5.0 | 0.00 | 0.02 | 0.02 | 74 | 1024.1 |
| 20260906034437 | 63 | 331 | 4.0 | 6.0 | 0.00 | 0.02 | 0.02 | 73 | 1024.0 |
| 20260906033933 | 63 | 6 | 5.0 | 7.0 | 0.00 | 0.02 | 0.02 | 73 | 1024.0 |
| 20260906033433 | 63 | 352 | 8.0 | 9.0 | 0.00 | 0.02 | 0.02 | 73 | 1023.8 |
| 20260906032928 | 63 | 3 | 8.0 | 10.0 | 0.00 | 0.02 | 0.02 | 72 | 1023.8 |
| 20260906032424 | 64 | 342 | 6.0 | 7.0 | 0.00 | 0.02 | 0.02 | 72 | 1023.4 |
| 20260906031919 | 63 | 0 | 5.0 | 6.0 | 0.00 | 0.02 | 0.02 | 72 | 1023.6 |
| 20260906031414 | 63 | 1 | 8.0 | 10.0 | 0.00 | 0.02 | 0.02 | 73 | 1023.6 |
| 20260906030909 | 63 | 334 | 8.0 | 9.0 | 0.00 | 0.02 | 0.02 | 73 | 1023.6 |
| 20260906030404 | 63 | 313 | 7.0 | 11.0 | 0.00 | 0.02 | 0.02 | 72 | 1023.4 |
| 20260906025858 | 64 | 340 | 5.0 | 7.0 | 0.00 | 0.02 | 0.02 | 72 | 1023.4 |
| 20260906025353 | 64 | 353 | 6.0 | 7.0 | 0.00 | 0.02 | 0.02 | 71 | 1023.2 |
| 20260906024852 | 64 | 17 | 5.0 | 6.0 | 0.00 | 0.02 | 0.02 | 71 | 1023.7 |
| 20260906024351 | 64 | 328 | 4.0 | 5.0 | 0.00 | 0.02 | 0.02 | 71 | 1023.7 |
| 20260906023846 | 64 | 27 | 7.0 | 9.0 | 0.00 | 0.02 | 0.02 | 69 | 1023.3 |
| 20260906023343 | 65 | 334 | 5.0 | 6.0 | 0.00 | 0.02 | 0.02 | 69 | 1023.2 |
| 20260906022837 | 66 | 7 | 6.0 | 7.0 | 0.00 | 0.02 | 0.02 | 67 | 1023.2 |
| 20260906022338 | 67 | 339 | 7.0 | 11.0 | 0.00 | 0.02 | 0.02 | 65 | 1023.2 |
| 20260906021833 | 68 | 46 | 3.0 | 3.0 | 0.00 | 0.02 | 0.02 | 65 | 1022.9 |
| 20260906021332 | 67 | 350 | 2.0 | 2.0 | 0.00 | 0.02 | 0.02 | 64 | 1023.0 |
| 20260906020828 | 66 | 294 | 0.0 | 1.0 | 0.00 | 0.02 | 0.02 | 71 | 1023.0 |
| 20260906020327 | 67 | 218 | 0.0 | 0.0 | 0.00 | 0.02 | 0.02 | 70 | 1023.1 |
| 20260906015822 | 68 | 214 | 0.0 | 0.0 | 0.00 | 0.02 | 0.02 | 66 | 1022.9 |
| 20260906015320 | 68 | 145 | 0.0 | 1.0 | 0.00 | 0.02 | 0.02 | 63 | 1023.0 |
| 20260906014815 | 69 | 226 | 0.0 | 0.0 | 0.00 | 0.02 | 0.02 | 60 | 1023.0 |
| 20260906014310 | 68 | 218 | 0.0 | 0.0 | 0.00 | 0.02 | 0.02 | 61 | 1022.9 |
| 20260906013806 | 68 | 212 | 0.0 | 0.0 | 0.00 | 0.02 | 0.02 | 60 | 1022.9 |
| 20260906013301 | 69 | 252 | 0.0 | 0.0 | 0.00 | 0.02 | 0.02 | 59 | 1022.7 |
| 20260906012756 | 70 | 291 | 1.0 | 1.0 | 0.00 | 0.02 | 0.02 | 56 | 1022.5 |
| 20260906012251 | 69 | 357 | 7.0 | 8.0 | 0.00 | 0.02 | 0.02 | 56 | 1022.6 |
| 20260906011746 | 69 | 339 | 2.0 | 2.0 | 0.00 | 0.02 | 0.02 | 57 | 1022.5 |
| 20260906011246 | 70 | 306 | 2.0 | 2.0 | 0.00 | 0.02 | 0.02 | 57 | 1022.5 |
| 20260906010742 | 70 | 359 | 6.0 | 7.0 | 0.00 | 0.02 | 0.02 | 56 | 1022.2 |
| 20260906010238 | 70 | 338 | 2.0 | 2.0 | 0.00 | 0.02 | 0.02 | 56 | 1022.3 |
| 20260906005733 | 70 | 0 | 2.0 | 2.0 | 0.00 | 0.02 | 0.02 | 58 | 1022.2 |
| 20260906005232 | 70 | 344 | 5.0 | 6.0 | 0.00 | 0.02 | 0.02 | 57 | 1022.5 |
| 20260906004731 | 71 | 53 | 1.0 | 2.0 | 0.00 | 0.02 | 0.02 | 56 | 1022.1 |
| 20260906004227 | 71 | 350 | 4.0 | 6.0 | 0.00 | 0.02 | 0.02 | 56 | 1022.1 |
| 20260906003722 | 71 | 355 | 5.0 | 7.0 | 0.00 | 0.02 | 0.02 | 55 | 1021.9 |
| 20260906003217 | 72 | 48 | 6.0 | 7.0 | 0.00 | 0.02 | 0.02 | 53 | 1022.1 |
| 20260906002717 | 72 | 332 | 5.0 | 7.0 | 0.00 | 0.02 | 0.02 | 53 | 1022.1 |
| 20260906002212 | 73 | 336 | 6.0 | 7.0 | 0.00 | 0.02 | 0.02 | 52 | 1022.2 |
| 20260906001707 | 73 | 335 | 10.0 | 11.0 | 0.00 | 0.02 | 0.02 | 50 | 1022.1 |
| 20260906001207 | 73 | 344 | 7.0 | 7.0 | 0.00 | 0.02 | 0.02 | 50 | 1021.9 |
| 20260906000703 | 74 | 349 | 6.0 | 8.0 | 0.00 | 0.02 | 0.02 | 50 | 1022.0 |
| 20260906000158 | 75 | 319 | 10.0 | 10.0 | 0.00 | 0.02 | 0.02 | 48 | 1022.0 |
| 20260905235657 | 75 | 337 | 6.0 | 7.0 | 0.00 | 0.02 | 0.02 | 50 | 1021.9 |
| 20260905235152 | 75 | 7 | 4.0 | 5.0 | 0.00 | 0.02 | 0.02 | 51 | 1022.0 |
| 20260905234647 | 75 | 332 | 5.0 | 6.0 | 0.00 | 0.02 | 0.02 | 49 | 1021.8 |
| 20260905234143 | 74 | 345 | 5.0 | 6.0 | 0.00 | 0.02 | 0.02 | 50 | 1021.8 |
| 20260905233638 | 75 | 321 | 7.0 | 7.0 | 0.00 | 0.02 | 0.02 | 49 | 1021.8 |
| 20260905233137 | 75 | 310 | 8.0 | 9.0 | 0.00 | 0.02 | 0.02 | 49 | 1021.7 |
| 20260905232633 | 75 | 349 | 7.0 | 7.0 | 0.00 | 0.02 | 0.02 | 48 | 1021.8 |
| 20260905232128 | 75 | 21 | 5.0 | 6.0 | 0.00 | 0.02 | 0.02 | 50 | 1021.9 |
| 20260905231623 | 75 | 321 | 6.0 | 8.0 | 0.00 | 0.02 | 0.02 | 50 | 1022.0 |
| 20260905231119 | 75 | 349 | 8.0 | 10.0 | 0.00 | 0.02 | 0.02 | 50 | 1021.8 |
| 20260905230615 | 75 | 343 | 5.0 | 6.0 | 0.00 | 0.02 | 0.02 | 51 | 1022.0 |
| 20260905230113 | 74 | 358 | 6.0 | 7.0 | 0.00 | 0.02 | 0.02 | 51 | 1022.1 |
| 20260905225607 | 74 | 332 | 6.0 | 7.0 | 0.00 | 0.02 | 0.02 | 51 | 1022.2 |
| 20260905225102 | 74 | 334 | 7.0 | 8.0 | 0.00 | 0.02 | 0.02 | 51 | 1022.1 |
| 20260905224602 | 74 | 321 | 3.0 | 3.0 | 0.00 | 0.02 | 0.02 | 52 | 1022.3 |
| 20260905224101 | 74 | 336 | 8.0 | 9.0 | 0.00 | 0.02 | 0.02 | 51 | 1022.3 |
| 20260905223559 | 74 | 313 | 8.0 | 10.0 | 0.00 | 0.02 | 0.02 | 49 | 1022.3 |
| 20260905223055 | 75 | 321 | 6.0 | 7.0 | 0.00 | 0.02 | 0.02 | 49 | 1022.5 |
| 20260905222554 | 74 | 332 | 5.0 | 7.0 | 0.00 | 0.02 | 0.02 | 48 | 1022.6 |
| 20260905222050 | 74 | 299 | 5.0 | 6.0 | 0.00 | 0.02 | 0.02 | 47 | 1022.5 |
| 20260905221546 | 74 | 303 | 6.0 | 7.0 | 0.00 | 0.02 | 0.02 | 48 | 1022.6 |
| 20260905221042 | 74 | 2 | 5.0 | 6.0 | 0.00 | 0.02 | 0.02 | 50 | 1022.8 |
| 20260905220537 | 73 | 243 | 1.0 | 1.0 | 0.00 | 0.02 | 0.02 | 49 | 1023.0 |
| 20260905220033 | 74 | 0 | 4.0 | 5.0 | 0.00 | 0.02 | 0.02 | 47 | 1023.0 |
| 20260905215532 | 75 | 337 | 6.0 | 7.0 | 0.00 | 0.02 | 0.02 | 47 | 1023.3 |
| 20260905215029 | 76 | 277 | 0.0 | 1.0 | 0.00 | 0.02 | 0.02 | 46 | 1023.0 |
| 20260905214525 | 75 | 252 | 0.0 | 0.0 | 0.00 | 0.02 | 0.02 | 46 | 1023.2 |
| 20260905214019 | 75 | 258 | 0.0 | 0.0 | 0.00 | 0.02 | 0.02 | 46 | 1023.3 |
| 20260905213515 | 75 | 239 | 1.0 | 2.0 | 0.00 | 0.02 | 0.02 | 45 | 1023.3 |
| 20260905213010 | 75 | 224 | 2.0 | 2.0 | 0.00 | 0.02 | 0.02 | 46 | 1023.4 |
| 20260905212505 | 72 | 245 | 0.0 | 0.0 | 0.00 | 0.02 | 0.02 | 49 | 1023.7 |
| 20260905212004 | 73 | 267 | 1.0 | 1.0 | 0.00 | 0.02 | 0.02 | 49 | 1023.6 |
| 20260905211500 | 73 | 33 | 1.0 | 2.0 | 0.00 | 0.02 | 0.02 | 48 | 1023.7 |
| 20260905210955 | 72 | 212 | 0.0 | 0.0 | 0.00 | 0.02 | 0.02 | 50 | 1023.8 |
| 20260905210451 | 72 | 144 | 2.0 | 3.0 | 0.00 | 0.02 | 0.02 | 54 | 1023.9 |
| 20260905205950 | 73 | 235 | 0.0 | 0.0 | 0.00 | 0.02 | 0.02 | 50 | 1024.0 |
| 20260905205445 | 74 | 132 | 4.0 | 5.0 | 0.00 | 0.02 | 0.02 | 48 | 1023.9 |
| 20260905204943 | 73 | 231 | 0.0 | 0.0 | 0.00 | 0.02 | 0.02 | 46 | 1023.9 |
| 20260905204434 | 72 | 209 | 0.0 | 1.0 | 0.00 | 0.02 | 0.02 | 49 | 1023.9 |
| 20260905203933 | 72 | 130 | 5.0 | 6.0 | 0.00 | 0.02 | 0.02 | 48 | 1024.0 |
| 20260905203428 | 72 | 243 | 0.0 | 0.0 | 0.00 | 0.02 | 0.02 | 49 | 1024.0 |
| 20260905202924 | 72 | 245 | 0.0 | 0.0 | 0.00 | 0.02 | 0.02 | 50 | 1024.3 |
| 20260905202419 | 72 | 248 | 2.0 | 2.0 | 0.00 | 0.02 | 0.02 | 51 | 1024.2 |
| 20260905201914 | 72 | 163 | 0.0 | 1.0 | 0.00 | 0.02 | 0.02 | 49 | 1024.3 |
| 20260905201410 | 72 | 232 | 1.0 | 1.0 | 0.00 | 0.02 | 0.02 | 50 | 1024.4 |
| 20260905200909 | 71 | 77 | 1.0 | 2.0 | 0.00 | 0.02 | 0.02 | 52 | 1024.4 |
| 20260905200405 | 72 | 226 | 0.0 | 1.0 | 0.00 | 0.02 | 0.02 | 54 | 1024.3 |
| 20260905195903 | 71 | 69 | 5.0 | 6.0 | 0.00 | 0.02 | 0.02 | 50 | 1024.4 |
| 20260905195359 | 70 | 217 | 1.0 | 1.0 | 0.00 | 0.02 | 0.02 | 52 | 1024.5 |
| 20260905194855 | 72 | 196 | 3.0 | 5.0 | 0.00 | 0.02 | 0.02 | 50 | 1024.7 |
| 20260905194354 | 69 | 232 | 1.0 | 2.0 | 0.00 | 0.02 | 0.02 | 56 | 1024.7 |
| 20260905193854 | 69 | 230 | 2.0 | 3.0 | 0.00 | 0.02 | 0.02 | 55 | 1024.7 |
| 20260905193348 | 69 | 158 | 3.0 | 3.0 | 0.00 | 0.02 | 0.02 | 53 | 1024.9 |
| 20260905192844 | 69 | 175 | 0.0 | 1.0 | 0.00 | 0.02 | 0.02 | 53 | 1024.7 |
| 20260905192340 | 69 | 204 | 4.0 | 5.0 | 0.00 | 0.02 | 0.02 | 54 | 1024.7 |
| 20260905191839 | 69 | 200 | 3.0 | 3.0 | 0.00 | 0.02 | 0.02 | 57 | 1024.9 |
| 20260905191338 | 68 | 268 | 3.0 | 3.0 | 0.00 | 0.02 | 0.02 | 57 | 1025.0 |
| 20260905190837 | 68 | 214 | 5.0 | 6.0 | 0.00 | 0.02 | 0.02 | 57 | 1025.1 |
| 20260905190337 | 68 | 220 | 2.0 | 3.0 | 0.00 | 0.02 | 0.02 | 58 | 1025.1 |
| 20260905185835 | 68 | 237 | 0.0 | 0.0 | 0.00 | 0.02 | 0.02 | 58 | 1025.1 |
| 20260905185331 | 67 | 194 | 1.0 | 2.0 | 0.00 | 0.02 | 0.02 | 58 | 1025.2 |
| 20260905184830 | 68 | 245 | 2.0 | 2.0 | 0.00 | 0.02 | 0.02 | 59 | 1025.3 |
| 20260905184330 | 67 | 181 | 3.0 | 3.0 | 0.00 | 0.02 | 0.02 | 59 | 1025.3 |
| 20260905183828 | 68 | 242 | 3.0 | 3.0 | 0.00 | 0.02 | 0.02 | 60 | 1025.5 |
| 20260905183323 | 67 | 235 | 0.0 | 0.0 | 0.00 | 0.02 | 0.02 | 61 | 1025.3 |
| 20260905182818 | 66 | 146 | 3.0 | 5.0 | 0.00 | 0.02 | 0.02 | 63 | 1025.5 |
| 20260905182318 | 67 | 201 | 1.0 | 2.0 | 0.00 | 0.02 | 0.02 | 62 | 1025.5 |
| 20260905181813 | 67 | 179 | 2.0 | 3.0 | 0.00 | 0.02 | 0.02 | 66 | 1025.4 |
| 20260905181312 | 66 | 139 | 1.0 | 2.0 | 0.00 | 0.02 | 0.02 | 66 | 1025.9 |
| 20260905180812 | 65 | 255 | 0.0 | 0.0 | 0.00 | 0.02 | 0.02 | 68 | 1025.9 |
| 20260905180307 | 65 | 1 | 2.0 | 2.0 | 0.00 | 0.02 | 0.02 | 68 | 1025.8 |
| 20260905175802 | 66 | 128 | 2.0 | 2.0 | 0.00 | 0.02 | 0.02 | 65 | 1026.0 |
| 20260905175256 | 66 | 84 | 2.0 | 3.0 | 0.00 | 0.02 | 0.02 | 66 | 1026.1 |
| 20260905174752 | 66 | 177 | 0.0 | 1.0 | 0.00 | 0.02 | 0.02 | 65 | 1026.1 |
| 20260905174248 | 66 | 231 | 0.0 | 0.0 | 0.00 | 0.02 | 0.02 | 68 | 1026.2 |
| 20260905173744 | 65 | 121 | 5.0 | 8.0 | 0.00 | 0.02 | 0.02 | 69 | 1026.2 |
| 20260905173239 | 64 | 201 | 2.0 | 2.0 | 0.00 | 0.02 | 0.02 | 70 | 1026.2 |
| 20260905172738 | 64 | 200 | 1.0 | 2.0 | 0.00 | 0.02 | 0.02 | 71 | 1026.0 |
| 20260905172238 | 64 | 207 | 3.0 | 3.0 | 0.00 | 0.02 | 0.02 | 71 | 1026.4 |
| 20260905171734 | 63 | 226 | 2.0 | 3.0 | 0.00 | 0.02 | 0.02 | 71 | 1026.2 |
| 20260905171230 | 63 | 244 | 0.0 | 0.0 | 0.00 | 0.02 | 0.02 | 71 | 1026.4 |
| 20260905170726 | 63 | 242 | 0.0 | 0.0 | 0.00 | 0.02 | 0.02 | 74 | 1026.4 |
| 20260905170222 | 62 | 245 | 0.0 | 0.0 | 0.00 | 0.02 | 0.02 | 75 | 1026.3 |
| 20260905165721 | 62 | 273 | 0.0 | 0.0 | 0.00 | 0.02 | 0.02 | 73 | 1026.3 |
| 20260905165217 | 60 | 226 | 0.0 | 0.0 | 0.00 | 0.02 | 0.02 | 78 | 1026.5 |
| 20260905164717 | 59 | 279 | 0.0 | 1.0 | 0.00 | 0.02 | 0.02 | 83 | 1026.4 |
| 20260905164217 | 59 | 269 | 1.0 | 1.0 | 0.00 | 0.02 | 0.02 | 83 | 1026.4 |
| 20260905163713 | 58 | 209 | 0.0 | 0.0 | 0.00 | 0.02 | 0.02 | 84 | 1026.6 |
| 20260905163209 | 59 | 224 | 1.0 | 2.0 | 0.00 | 0.02 | 0.02 | 86 | 1026.6 |
| 20260905162705 | 58 | 275 | 1.0 | 1.0 | 0.00 | 0.02 | 0.02 | 89 | 1026.9 |
| 20260905162204 | 57 | 231 | 0.0 | 1.0 | 0.00 | 0.02 | 0.02 | 91 | 1026.6 |
| 20260905161659 | 56 | 325 | 1.0 | 1.0 | 0.00 | 0.02 | 0.02 | 92 | 1026.6 |
| 20260905161157 | 56 | 80 | 1.0 | 1.0 | 0.00 | 0.02 | 0.02 | 94 | 1026.5 |
| 20260905160650 | 55 | 16 | 1.0 | 1.0 | 0.00 | 0.02 | 0.02 | 94 | 1026.5 |
| 20260905160150 | 54 | 305 | 2.0 | 2.0 | 0.00 | 0.02 | 0.02 | 94 | 1026.6 |
| 20260905155644 | 54 | 222 | 0.0 | 0.0 | 0.00 | 0.02 | 0.02 | 95 | 1026.5 |
| 20260905155143 | 54 | 250 | 0.0 | 0.0 | 0.00 | 0.02 | 0.02 | 95 | 1026.6 |
| 20260905154638 | 54 | 273 | 1.0 | 1.0 | 0.00 | 0.02 | 0.02 | 95 | 1026.4 |
| 20260905154133 | 53 | 273 | 0.0 | 0.0 | 0.00 | 0.02 | 0.02 | 95 | 1026.8 |
| 20260905153629 | 53 | 253 | 0.0 | 0.0 | 0.00 | 0.02 | 0.02 | 95 | 1026.4 |
| 20260905153124 | 53 | 278 | 0.0 | 0.0 | 0.00 | 0.02 | 0.02 | 95 | 1026.9 |
| 20260905152619 | 52 | 279 | 1.0 | 1.0 | 0.00 | 0.02 | 0.02 | 95 | 1026.4 |
| 20260905152114 | 52 | 286 | 0.0 | 0.0 | 0.00 | 0.02 | 0.02 | 95 | 1026.8 |
| 20260905151609 | 52 | 268 | 0.0 | 0.0 | 0.00 | 0.02 | 0.02 | 95 | 1026.6 |
| 20260905151104 | 52 | 282 | 0.0 | 1.0 | 0.00 | 0.02 | 0.02 | 95 | 1026.4 |
| 20260905150600 | 52 | 260 | 0.0 | 0.0 | 0.00 | 0.02 | 0.02 | 95 | 1026.8 |
| 20260905150057 | 52 | 327 | 1.0 | 2.0 | 0.00 | 0.02 | 0.02 | 95 | 1026.5 |
| 20260905145551 | 52 | 284 | 0.0 | 1.0 | 0.00 | 0.02 | 0.02 | 95 | 1026.6 |
| 20260905145050 | 52 | 302 | 2.0 | 2.0 | 0.00 | 0.02 | 0.02 | 95 | 1026.6 |
| 20260905144545 | 52 | 248 | 1.0 | 1.0 | 0.00 | 0.02 | 0.02 | 95 | 1026.6 |
| 20260905144044 | 52 | 357 | 3.0 | 3.0 | 0.00 | 0.02 | 0.02 | 95 | 1026.0 |
| 20260905143544 | 52 | 198 | 2.0 | 2.0 | 0.00 | 0.02 | 0.02 | 95 | 1026.9 |
| 20260905143039 | 52 | 254 | 0.0 | 0.0 | 0.00 | 0.02 | 0.02 | 95 | 1026.6 |
| 20260905142537 | 52 | 317 | 1.0 | 2.0 | 0.00 | 0.02 | 0.02 | 95 | 1026.5 |
| 20260905142032 | 52 | 207 | 1.0 | 1.0 | 0.00 | 0.02 | 0.02 | 95 | 1026.6 |
| 20260905141527 | 52 | 250 | 0.0 | 0.0 | 0.00 | 0.02 | 0.02 | 95 | 1026.1 |
| 20260905141024 | 52 | 255 | 0.0 | 0.0 | 0.00 | 0.02 | 0.02 | 95 | 1026.1 |
| 20260905140524 | 52 | 236 | 0.0 | 0.0 | 0.00 | 0.02 | 0.02 | 95 | 1026.2 |
| 20260905140023 | 52 | 224 | 2.0 | 2.0 | 0.00 | 0.02 | 0.02 | 95 | 1026.6 |
| 20260905135519 | 52 | 185 | 3.0 | 3.0 | 0.00 | 0.02 | 0.02 | 95 | 1026.5 |
| 20260905135013 | 52 | 196 | 3.0 | 3.0 | 0.00 | 0.02 | 0.02 | 95 | 1026.3 |
| 20260905134508 | 51 | 256 | 0.0 | 0.0 | 0.00 | 0.02 | 0.02 | 95 | 1025.9 |
| 20260905134007 | 51 | 221 | 0.0 | 0.0 | 0.00 | 0.02 | 0.02 | 95 | 1025.8 |
| 20260905133503 | 51 | 207 | 0.0 | 0.0 | 0.00 | 0.02 | 0.02 | 95 | 1026.1 |
| 20260905133002 | 51 | 230 | 0.0 | 0.0 | 0.00 | 0.02 | 0.02 | 95 | 1026.2 |
| 20260905132457 | 51 | 205 | 0.0 | 0.0 | 0.00 | 0.02 | 0.02 | 95 | 1025.8 |
| 20260905131951 | 51 | 193 | 1.0 | 1.0 | 0.00 | 0.02 | 0.02 | 95 | 1026.4 |
| 20260905131447 | 50 | 196 | 0.0 | 0.0 | 0.00 | 0.02 | 0.02 | 95 | 1025.8 |
| 20260905130948 | 51 | 241 | 0.0 | 0.0 | 0.00 | 0.02 | 0.02 | 95 | 1025.8 |
| 20260905130441 | 51 | 245 | 0.0 | 0.0 | 0.00 | 0.02 | 0.02 | 95 | 1025.4 |
| 20260905125941 | 51 | 246 | 0.0 | 0.0 | 0.00 | 0.02 | 0.02 | 95 | 1025.5 |
| 20260905125436 | 51 | 236 | 0.0 | 0.0 | 0.00 | 0.02 | 0.02 | 95 | 1025.4 |
| 20260905124932 | 51 | 214 | 1.0 | 1.0 | 0.00 | 0.02 | 0.02 | 95 | 1025.4 |
| 20260905124428 | 51 | 181 | 1.0 | 1.0 | 0.00 | 0.02 | 0.02 | 95 | 1025.4 |
| 20260905123928 | 51 | 177 | 1.0 | 2.0 | 0.00 | 0.02 | 0.02 | 95 | 1025.2 |
| 20260905123425 | 51 | 224 | 1.0 | 1.0 | 0.00 | 0.02 | 0.02 | 95 | 1025.2 |
| 20260905122920 | 51 | 222 | 0.0 | 0.0 | 0.00 | 0.02 | 0.02 | 95 | 1025.0 |
| 20260905122419 | 51 | 190 | 1.0 | 1.0 | 0.00 | 0.02 | 0.02 | 95 | 1025.3 |
| 20260905121915 | 51 | 222 | 0.0 | 0.0 | 0.00 | 0.02 | 0.02 | 95 | 1025.5 |
| 20260905121410 | 51 | 248 | 0.0 | 0.0 | 0.00 | 0.02 | 0.02 | 95 | 1025.3 |
| 20260905120909 | 51 | 282 | 0.0 | 0.0 | 0.00 | 0.02 | 0.02 | 95 | 1025.2 |
| 20260905120404 | 51 | 260 | 0.0 | 0.0 | 0.00 | 0.02 | 0.02 | 95 | 1025.5 |
| 20260905115859 | 51 | 250 | 0.0 | 1.0 | 0.00 | 0.02 | 0.02 | 95 | 1025.5 |
| 20260905115358 | 51 | 237 | 0.0 | 0.0 | 0.00 | 0.02 | 0.02 | 95 | 1025.8 |
| 20260905114853 | 51 | 192 | 2.0 | 2.0 | 0.00 | 0.02 | 0.02 | 95 | 1025.3 |
| 20260905114352 | 51 | 210 | 1.0 | 1.0 | 0.00 | 0.02 | 0.02 | 95 | 1025.5 |
| 20260905113852 | 51 | 244 | 0.0 | 1.0 | 0.00 | 0.02 | 0.02 | 95 | 1025.0 |
| 20260905113348 | 51 | 253 | 0.0 | 0.0 | 0.00 | 0.02 | 0.02 | 95 | 1024.9 |
| 20260905112843 | 51 | 253 | 0.0 | 0.0 | 0.00 | 0.02 | 0.02 | 95 | 1025.0 |
| 20260905112337 | 51 | 240 | 0.0 | 0.0 | 0.00 | 0.02 | 0.02 | 95 | 1025.1 |
| 20260905111833 | 51 | 233 | 0.0 | 0.0 | 0.00 | 0.02 | 0.02 | 95 | 1025.2 |
| 20260905111327 | 51 | 263 | 0.0 | 1.0 | 0.00 | 0.02 | 0.02 | 95 | 1025.1 |
| 20260905110826 | 51 | 272 | 0.0 | 1.0 | 0.00 | 0.02 | 0.02 | 95 | 1025.0 |
| 20260905110320 | 51 | 293 | 0.0 | 0.0 | 0.00 | 0.02 | 0.02 | 95 | 1025.0 |
| 20260905105816 | 51 | 243 | 0.0 | 0.0 | 0.00 | 0.02 | 0.02 | 95 | 1025.1 |
| 20260905105315 | 51 | 238 | 0.0 | 0.0 | 0.00 | 0.02 | 0.02 | 95 | 1025.2 |
| 20260905104809 | 51 | 219 | 1.0 | 1.0 | 0.00 | 0.02 | 0.02 | 95 | 1025.5 |
| 20260905104306 | 51 | 223 | 0.0 | 0.0 | 0.00 | 0.02 | 0.02 | 95 | 1025.3 |
| 20260905103805 | 51 | 239 | 0.0 | 0.0 | 0.00 | 0.02 | 0.02 | 95 | 1025.3 |
| 20260905103300 | 51 | 227 | 1.0 | 1.0 | 0.00 | 0.02 | 0.02 | 95 | 1025.1 |
| 20260905102756 | 51 | 226 | 2.0 | 2.0 | 0.00 | 0.02 | 0.02 | 95 | 1024.7 |
| 20260905102253 | 51 | 224 | 2.0 | 2.0 | 0.07 | 0.02 | 0.02 | 95 | 1024.4 |
| 20260905101752 | 51 | 305 | 1.0 | 1.0 | 0.07 | 0.02 | 0.02 | 95 | 1023.9 |
| 20260905101251 | 51 | 278 | 0.0 | 0.0 | 0.00 | 0.01 | 0.01 | 95 | 1024.9 |
| 20260905100746 | 51 | 305 | 0.0 | 1.0 | 0.00 | 0.01 | 0.01 | 95 | 1025.4 |
| 20260905100242 | 51 | 255 | 0.0 | 0.0 | 0.00 | 0.01 | 0.01 | 95 | 1025.4 |
| 20260905095741 | 51 | 82 | 0.0 | 0.0 | 0.00 | 0.01 | 0.01 | 95 | 1025.3 |
| 20260905095241 | 51 | 227 | 1.0 | 1.0 | 0.00 | 0.01 | 0.01 | 95 | 1025.7 |
| 20260905094736 | 51 | 269 | 1.0 | 1.0 | 0.00 | 0.01 | 0.01 | 95 | 1025.2 |
| 20260905094231 | 51 | 262 | 1.0 | 1.0 | 0.00 | 0.01 | 0.01 | 95 | 1025.1 |
| 20260905093730 | 51 | 256 | 0.0 | 0.0 | 0.00 | 0.01 | 0.01 | 95 | 1024.7 |
| 20260905093226 | 51 | 277 | 0.0 | 0.0 | 0.00 | 0.01 | 0.01 | 95 | 1024.5 |
| 20260905092721 | 51 | 247 | 0.0 | 0.0 | 0.00 | 0.01 | 0.01 | 95 | 1025.1 |
| 20260905092217 | 51 | 277 | 0.0 | 0.0 | 0.00 | 0.01 | 0.01 | 95 | 1025.0 |
| 20260905091711 | 51 | 270 | 0.0 | 0.0 | 0.00 | 0.01 | 0.01 | 95 | 1025.1 |
| 20260905091206 | 51 | 231 | 2.0 | 2.0 | 0.00 | 0.01 | 0.01 | 95 | 1025.2 |
| 20260905090705 | 51 | 272 | 0.0 | 0.0 | 0.00 | 0.01 | 0.01 | 95 | 1024.1 |
| 20260905090201 | 51 | 230 | 0.0 | 0.0 | 0.00 | 0.01 | 0.01 | 95 | 1024.5 |
| 20260905085659 | 51 | 69 | 1.0 | 1.0 | 0.00 | 0.01 | 0.01 | 95 | 1024.9 |
| 20260905085155 | 51 | 249 | 1.0 | 1.0 | 0.00 | 0.01 | 0.01 | 95 | 1025.1 |
| 20260905084655 | 51 | 244 | 1.0 | 1.0 | 0.00 | 0.01 | 0.01 | 95 | 1025.1 |
| 20260905084149 | 51 | 288 | 2.0 | 2.0 | 0.00 | 0.01 | 0.01 | 95 | 1025.0 |
| 20260905083644 | 51 | 339 | 0.0 | 1.0 | 0.00 | 0.01 | 0.01 | 95 | 1024.8 |
| 20260905083140 | 51 | 252 | 1.0 | 1.0 | 0.00 | 0.01 | 0.01 | 95 | 1025.4 |
| 20260905082636 | 51 | 228 | 0.0 | 0.0 | 0.00 | 0.01 | 0.01 | 95 | 1025.2 |
| 20260905082131 | 51 | 236 | 0.0 | 0.0 | 0.00 | 0.01 | 0.01 | 95 | 1025.1 |
| 20260905081631 | 51 | 223 | 0.0 | 0.0 | 0.00 | 0.01 | 0.01 | 95 | 1025.0 |
| 20260905081126 | 51 | 238 | 0.0 | 0.0 | 0.00 | 0.01 | 0.01 | 95 | 1025.3 |
| 20260905080621 | 51 | 268 | 0.0 | 0.0 | 0.05 | 0.01 | 0.01 | 95 | 1025.1 |
| 20260905080115 | 51 | 254 | 1.0 | 1.0 | 0.05 | 0.01 | 0.01 | 95 | 1025.1 |
| 20260905075614 | 51 | 236 | 0.0 | 0.0 | 0.00 | 0.00 | 0.00 | 95 | 1024.8 |
| 20260905075108 | 51 | 228 | 0.0 | 0.0 | 0.00 | 0.00 | 0.00 | 95 | 1024.8 |
| 20260905074607 | 51 | 232 | 0.0 | 0.0 | 0.00 | 0.00 | 0.00 | 95 | 1025.1 |
| 20260905074103 | 51 | 244 | 1.0 | 1.0 | 0.00 | 0.00 | 0.00 | 95 | 1025.2 |
| 20260905073558 | 51 | 233 | 0.0 | 0.0 | 0.00 | 0.00 | 0.00 | 95 | 1024.9 |
| 20260905073054 | 51 | 239 | 0.0 | 0.0 | 0.00 | 0.00 | 0.00 | 95 | 1024.5 |
| 20260905072553 | 51 | 252 | 0.0 | 0.0 | 0.00 | 0.00 | 0.00 | 95 | 1024.7 |
| 20260905072049 | 51 | 193 | 0.0 | 1.0 | 0.00 | 0.00 | 0.00 | 95 | 1024.2 |
| 20260905071546 | 51 | 258 | 0.0 | 0.0 | 0.00 | 0.00 | 0.00 | 95 | 1024.7 |
| 20260905071040 | 51 | 258 | 0.0 | 0.0 | 0.00 | 0.00 | 0.00 | 95 | 1024.7 |
| 20260905070536 | 51 | 265 | 0.0 | 0.0 | 0.00 | 0.00 | 0.00 | 95 | 1024.3 |
| 20260905070031 | 51 | 246 | 0.0 | 0.0 | 0.00 | 0.00 | 0.00 | 94 | 1024.9 |
| 20260905065529 | 51 | 248 | 0.0 | 0.0 | 0.00 | 0.00 | 0.00 | 94 | 1024.7 |
| 20260905065024 | 51 | 293 | 0.0 | 0.0 | 0.00 | 0.00 | 0.00 | 94 | 1024.7 |
| 20260905064519 | 51 | 286 | 0.0 | 0.0 | 0.00 | 0.00 | 0.00 | 94 | 1024.8 |
| 20260905064014 | 51 | 251 | 0.0 | 0.0 | 0.00 | 0.00 | 0.00 | 94 | 1024.8 |
| 20260905063513 | 51 | 228 | 0.0 | 0.0 | 0.00 | 0.00 | 0.00 | 94 | 1025.1 |
| 20260905063010 | 51 | 228 | 0.0 | 0.0 | 0.00 | 0.00 | 0.00 | 94 | 1025.1 |
| 20260905062509 | 51 | 226 | 0.0 | 0.0 | 0.00 | 0.00 | 0.00 | 94 | 1025.2 |
| 20260905062004 | 51 | 253 | 0.0 | 0.0 | 0.00 | 0.00 | 0.00 | 94 | 1025.0 |
| 20260905061500 | 51 | 285 | 1.0 | 1.0 | 0.00 | 0.00 | 0.00 | 94 | 1024.8 |
| 20260905060958 | 51 | 265 | 0.0 | 0.0 | 0.00 | 0.00 | 0.00 | 94 | 1024.5 |
| 20260905060454 | 51 | 245 | 0.0 | 0.0 | 0.00 | 0.00 | 0.00 | 94 | 1024.7 |
| 20260905055955 | 51 | 228 | 0.0 | 0.0 | 0.00 | 0.30 | 0.30 | 94 | 1024.9 |
| 20260905055454 | 51 | 228 | 0.0 | 0.0 | 0.00 | 0.30 | 0.30 | 94 | 1024.5 |
| 20260905054949 | 51 | 228 | 0.0 | 0.0 | 0.00 | 0.30 | 0.30 | 94 | 1024.9 |
| 20260905054445 | 51 | 228 | 0.0 | 0.0 | 0.00 | 0.30 | 0.30 | 94 | 1024.8 |
| 20260905053945 | 51 | 226 | 0.0 | 0.0 | 0.00 | 0.30 | 0.30 | 94 | 1024.5 |
| 20260905053440 | 51 | 258 | 0.0 | 0.0 | 0.00 | 0.30 | 0.30 | 94 | 1024.7 |
| 20260905052936 | 51 | 271 | 0.0 | 0.0 | 0.00 | 0.30 | 0.30 | 94 | 1024.4 |